Year,Month,Day,Hour,Minute,Value (Times are PST for windspeed in km/hr)
2010,12,26,00,00,1.80
2010,12,26,00,01,0.30
2010,12,26,00,02,0.40
2010,12,26,00,03,0.00
2010,12,26,00,04,0.00
2010,12,26,00,05,0.00
2010,12,26,00,06,0.00
2010,12,26,00,07,0.00
2010,12,26,00,08,0.00
2010,12,26,00,09,0.00
2010,12,26,00,10,0.80
2010,12,26,00,11,1.10
2010,12,26,00,12,1.90
2010,12,26,00,13,1.60
2010,12,26,00,14,1.50
2010,12,26,00,15,0.50
2010,12,26,00,16,0.70
2010,12,26,00,17,0.20
2010,12,26,00,18,0.20
2010,12,26,00,19,0.00
2010,12,26,00,20,0.80
2010,12,26,00,21,0.60
2010,12,26,00,22,0.00
2010,12,26,00,23,0.00
2010,12,26,00,24,0.00
2010,12,26,00,25,0.00
2010,12,26,00,26,0.00
2010,12,26,00,27,0.00
2010,12,26,00,28,0.00
2010,12,26,00,29,0.10
2010,12,26,00,30,0.00
2010,12,26,00,31,0.00
2010,12,26,00,32,0.00
2010,12,26,00,33,0.00
2010,12,26,00,34,0.00
2010,12,26,00,35,0.00
2010,12,26,00,36,0.00
2010,12,26,00,37,0.00
2010,12,26,00,38,0.00
2010,12,26,00,39,0.00
2010,12,26,00,40,0.00
2010,12,26,00,41,0.00
2010,12,26,00,42,0.00
2010,12,26,00,43,0.00
2010,12,26,00,44,0.00
2010,12,26,00,45,0.00
2010,12,26,00,46,0.00
2010,12,26,00,47,0.00
2010,12,26,00,48,0.00
2010,12,26,00,49,0.00
2010,12,26,00,50,0.00
2010,12,26,00,51,0.00
2010,12,26,00,52,0.00
2010,12,26,00,53,0.00
2010,12,26,00,54,0.00
2010,12,26,00,55,0.00
2010,12,26,00,56,0.00
2010,12,26,00,57,0.90
2010,12,26,00,58,2.40
2010,12,26,00,59,2.30
2010,12,26,01,00,0.30
2010,12,26,01,01,0.40
2010,12,26,01,02,0.00
2010,12,26,01,03,0.00
2010,12,26,01,04,0.10
2010,12,26,01,05,0.00
2010,12,26,01,06,1.70
2010,12,26,01,07,1.80
2010,12,26,01,08,1.00
2010,12,26,01,09,0.30
2010,12,26,01,10,0.00
2010,12,26,01,11,0.00
2010,12,26,01,12,0.20
2010,12,26,01,13,2.10
2010,12,26,01,14,2.20
2010,12,26,01,15,1.10
2010,12,26,01,16,0.10
2010,12,26,01,17,0.00
2010,12,26,01,18,0.00
2010,12,26,01,19,0.00
2010,12,26,01,20,0.00
2010,12,26,01,21,0.00
2010,12,26,01,22,0.00
2010,12,26,01,23,0.00
2010,12,26,01,24,0.00
2010,12,26,01,25,1.10
2010,12,26,01,26,0.00
2010,12,26,01,27,0.20
2010,12,26,01,28,0.10
2010,12,26,01,29,0.30
2010,12,26,01,30,0.40
2010,12,26,01,31,0.40
2010,12,26,01,32,1.10
2010,12,26,01,33,0.10
2010,12,26,01,34,0.00
2010,12,26,01,35,1.40
2010,12,26,01,36,2.00
2010,12,26,01,37,2.10
2010,12,26,01,38,1.20
2010,12,26,01,39,0.20
2010,12,26,01,40,0.00
2010,12,26,01,41,0.00
2010,12,26,01,42,0.00
2010,12,26,01,43,0.00
2010,12,26,01,44,0.00
2010,12,26,01,45,0.00
2010,12,26,01,46,0.00
2010,12,26,01,47,0.00
2010,12,26,01,48,0.10
2010,12,26,01,49,0.00
2010,12,26,01,50,0.00
2010,12,26,01,51,0.00
2010,12,26,01,52,0.00
2010,12,26,01,53,0.00
2010,12,26,01,54,0.00
2010,12,26,01,55,0.00
2010,12,26,01,56,0.00
2010,12,26,01,57,0.00
2010,12,26,01,58,0.00
2010,12,26,01,59,0.00
2010,12,26,02,00,0.00
2010,12,26,02,01,0.10
2010,12,26,02,02,1.80
2010,12,26,02,03,1.10
2010,12,26,02,04,0.40
2010,12,26,02,05,2.50
2010,12,26,02,06,2.40
2010,12,26,02,07,3.80
2010,12,26,02,08,4.50
2010,12,26,02,09,0.90
2010,12,26,02,10,0.00
2010,12,26,02,11,0.10
2010,12,26,02,12,0.10
2010,12,26,02,13,1.80
2010,12,26,02,14,2.30
2010,12,26,02,15,0.00
2010,12,26,02,16,0.20
2010,12,26,02,17,0.10
2010,12,26,02,18,0.20
2010,12,26,02,19,0.20
2010,12,26,02,20,0.00
2010,12,26,02,21,0.00
2010,12,26,02,22,0.00
2010,12,26,02,23,0.00
2010,12,26,02,24,0.00
2010,12,26,02,25,0.00
2010,12,26,02,26,0.00
2010,12,26,02,27,0.00
2010,12,26,02,28,0.00
2010,12,26,02,29,0.00
2010,12,26,02,30,0.50
2010,12,26,02,31,0.50
2010,12,26,02,32,3.00
2010,12,26,02,33,1.50
2010,12,26,02,34,0.00
2010,12,26,02,35,0.00
2010,12,26,02,36,0.00
2010,12,26,02,37,0.00
2010,12,26,02,38,0.00
2010,12,26,02,39,0.00
2010,12,26,02,40,0.10
2010,12,26,02,41,1.50
2010,12,26,02,42,0.10
2010,12,26,02,43,0.00
2010,12,26,02,44,0.00
2010,12,26,02,45,0.40
2010,12,26,02,46,0.10
2010,12,26,02,47,0.00
2010,12,26,02,48,0.00
2010,12,26,02,49,0.00
2010,12,26,02,50,0.00
2010,12,26,02,51,0.40
2010,12,26,02,52,3.30
2010,12,26,02,53,3.80
2010,12,26,02,54,2.90
2010,12,26,02,55,1.70
2010,12,26,02,56,0.00
2010,12,26,02,57,0.00
2010,12,26,02,58,0.00
2010,12,26,02,59,0.00
2010,12,26,03,00,0.00
2010,12,26,03,01,0.00
2010,12,26,03,02,0.00
2010,12,26,03,03,0.00
2010,12,26,03,04,0.40
2010,12,26,03,05,4.30
2010,12,26,03,06,0.70
2010,12,26,03,07,0.00
2010,12,26,03,08,0.00
2010,12,26,03,09,0.00
2010,12,26,03,10,0.00
2010,12,26,03,11,0.60
2010,12,26,03,12,1.60
2010,12,26,03,13,1.50
2010,12,26,03,14,1.90
2010,12,26,03,15,0.10
2010,12,26,03,16,0.10
2010,12,26,03,17,0.00
2010,12,26,03,18,1.50
2010,12,26,03,19,0.20
2010,12,26,03,20,0.10
2010,12,26,03,21,0.10
2010,12,26,03,22,0.10
2010,12,26,03,23,0.10
2010,12,26,03,24,0.80
2010,12,26,03,25,3.90
2010,12,26,03,26,2.40
2010,12,26,03,27,1.10
2010,12,26,03,28,0.10
2010,12,26,03,29,0.20
2010,12,26,03,30,1.40
2010,12,26,03,31,2.60
2010,12,26,03,32,0.30
2010,12,26,03,33,0.90
2010,12,26,03,34,0.10
2010,12,26,03,35,0.40
2010,12,26,03,36,0.20
2010,12,26,03,37,0.40
2010,12,26,03,38,2.40
2010,12,26,03,39,0.50
2010,12,26,03,40,1.40
2010,12,26,03,41,3.40
2010,12,26,03,42,0.40
2010,12,26,03,43,1.10
2010,12,26,03,44,0.40
2010,12,26,03,45,0.50
2010,12,26,03,46,3.50
2010,12,26,03,47,4.30
2010,12,26,03,48,4.80
2010,12,26,03,49,2.00
2010,12,26,03,50,4.80
2010,12,26,03,51,0.30
2010,12,26,03,52,2.40
2010,12,26,03,53,5.30
2010,12,26,03,54,1.50
2010,12,26,03,55,1.60
2010,12,26,03,56,5.50
2010,12,26,03,57,0.60
2010,12,26,03,58,2.20
2010,12,26,03,59,7.20
2010,12,26,04,00,6.30
2010,12,26,04,01,6.00
2010,12,26,04,02,5.30
2010,12,26,04,03,3.90
2010,12,26,04,04,4.10
2010,12,26,04,05,2.60
2010,12,26,04,06,3.60
2010,12,26,04,07,10.10
2010,12,26,04,08,4.80
2010,12,26,04,09,7.70
2010,12,26,04,10,7.50
2010,12,26,04,11,8.40
2010,12,26,04,12,3.50
2010,12,26,04,13,6.40
2010,12,26,04,14,8.00
2010,12,26,04,15,6.50
2010,12,26,04,16,10.80
2010,12,26,04,17,12.60
2010,12,26,04,18,5.20
2010,12,26,04,19,3.00
2010,12,26,04,20,9.70
2010,12,26,04,21,10.90
2010,12,26,04,22,12.10
2010,12,26,04,23,9.10
2010,12,26,04,24,10.20
2010,12,26,04,25,7.50
2010,12,26,04,26,10.20
2010,12,26,04,27,11.20
2010,12,26,04,28,7.00
2010,12,26,04,29,6.20
2010,12,26,04,30,6.80
2010,12,26,04,31,13.60
2010,12,26,04,32,7.40
2010,12,26,04,33,9.70
2010,12,26,04,34,7.30
2010,12,26,04,35,5.50
2010,12,26,04,36,6.40
2010,12,26,04,37,7.40
2010,12,26,04,38,7.20
2010,12,26,04,39,10.10
2010,12,26,04,40,7.70
2010,12,26,04,41,8.00
2010,12,26,04,42,5.30
2010,12,26,04,43,7.20
2010,12,26,04,44,5.70
2010,12,26,04,45,4.50
2010,12,26,04,46,7.00
2010,12,26,04,47,2.60
2010,12,26,04,48,5.60
2010,12,26,04,49,4.10
2010,12,26,04,50,6.10
2010,12,26,04,51,8.40
2010,12,26,04,52,6.70
2010,12,26,04,53,8.00
2010,12,26,04,54,10.40
2010,12,26,04,55,8.10
2010,12,26,04,56,9.20
2010,12,26,04,57,4.40
2010,12,26,04,58,5.80
2010,12,26,04,59,5.60
2010,12,26,05,00,3.90
2010,12,26,05,01,5.90
2010,12,26,05,02,6.30
2010,12,26,05,03,3.00
2010,12,26,05,04,2.70
2010,12,26,05,05,2.70
2010,12,26,05,06,3.40
2010,12,26,05,07,3.00
2010,12,26,05,08,5.90
2010,12,26,05,09,2.40
2010,12,26,05,10,1.90
2010,12,26,05,11,1.80
2010,12,26,05,12,0.10
2010,12,26,05,13,3.30
2010,12,26,05,14,4.70
2010,12,26,05,15,7.00
2010,12,26,05,16,1.60
2010,12,26,05,17,0.60
2010,12,26,05,18,0.10
2010,12,26,05,19,5.50
2010,12,26,05,20,8.10
2010,12,26,05,21,9.40
2010,12,26,05,22,3.10
2010,12,26,05,23,14.80
2010,12,26,05,24,7.30
2010,12,26,05,25,6.10
2010,12,26,05,26,11.10
2010,12,26,05,27,9.00
2010,12,26,05,28,12.20
2010,12,26,05,29,10.80
2010,12,26,05,30,11.00
2010,12,26,05,31,13.60
2010,12,26,05,32,8.80
2010,12,26,05,33,10.90
2010,12,26,05,34,11.30
2010,12,26,05,35,12.00
2010,12,26,05,36,7.50
2010,12,26,05,37,6.20
2010,12,26,05,38,5.40
2010,12,26,05,39,6.10
2010,12,26,05,40,9.70
2010,12,26,05,41,11.40
2010,12,26,05,42,4.80
2010,12,26,05,43,5.70
2010,12,26,05,44,10.30
2010,12,26,05,45,5.70
2010,12,26,05,46,7.30
2010,12,26,05,47,8.50
2010,12,26,05,48,8.60
2010,12,26,05,49,6.40
2010,12,26,05,50,6.40
2010,12,26,05,51,8.70
2010,12,26,05,52,10.70
2010,12,26,05,53,6.90
2010,12,26,05,54,9.30
2010,12,26,05,55,8.10
2010,12,26,05,56,12.90
2010,12,26,05,57,10.70
2010,12,26,05,58,10.50
2010,12,26,05,59,11.90
2010,12,26,06,00,8.10
2010,12,26,06,01,15.00
2010,12,26,06,02,10.60
2010,12,26,06,03,9.20
2010,12,26,06,04,9.30
2010,12,26,06,05,8.90
2010,12,26,06,06,10.40
2010,12,26,06,07,7.50
2010,12,26,06,08,7.70
2010,12,26,06,09,7.40
2010,12,26,06,10,9.10
2010,12,26,06,11,6.40
2010,12,26,06,12,13.40
2010,12,26,06,13,8.20
2010,12,26,06,14,8.40
2010,12,26,06,15,9.30
2010,12,26,06,16,6.20
2010,12,26,06,17,7.70
2010,12,26,06,18,7.40
2010,12,26,06,19,8.30
2010,12,26,06,20,13.50
2010,12,26,06,21,14.60
2010,12,26,06,22,10.30
2010,12,26,06,23,9.20
2010,12,26,06,24,8.20
2010,12,26,06,25,10.40
2010,12,26,06,26,10.50
2010,12,26,06,27,13.00
2010,12,26,06,28,11.40
2010,12,26,06,29,12.40
2010,12,26,06,30,6.40
2010,12,26,06,31,10.70
2010,12,26,06,32,9.30
2010,12,26,06,33,11.00
2010,12,26,06,34,9.70
2010,12,26,06,35,11.00
2010,12,26,06,36,6.40
2010,12,26,06,37,9.10
2010,12,26,06,38,4.70
2010,12,26,06,39,5.20
2010,12,26,06,40,7.70
2010,12,26,06,41,6.40
2010,12,26,06,42,6.20
2010,12,26,06,43,6.00
2010,12,26,06,44,8.60
2010,12,26,06,45,3.50
2010,12,26,06,46,6.00
2010,12,26,06,47,8.20
2010,12,26,06,48,4.30
2010,12,26,06,49,5.10
2010,12,26,06,50,3.60
2010,12,26,06,51,2.70
2010,12,26,06,52,6.00
2010,12,26,06,53,6.80
2010,12,26,06,54,5.10
2010,12,26,06,55,1.90
2010,12,26,06,56,1.00
2010,12,26,06,57,3.60
2010,12,26,06,58,2.40
2010,12,26,06,59,4.20
2010,12,26,07,00,1.10
2010,12,26,07,01,2.00
2010,12,26,07,02,1.80
2010,12,26,07,03,3.20
2010,12,26,07,04,3.40
2010,12,26,07,05,4.00
2010,12,26,07,06,1.40
2010,12,26,07,07,5.50
2010,12,26,07,08,4.50
2010,12,26,07,09,5.90
2010,12,26,07,10,3.50
2010,12,26,07,11,3.60
2010,12,26,07,12,1.00
2010,12,26,07,13,6.00
2010,12,26,07,14,5.20
2010,12,26,07,15,6.50
2010,12,26,07,16,4.30
2010,12,26,07,17,7.30
2010,12,26,07,18,3.30
2010,12,26,07,19,2.50
2010,12,26,07,20,9.30
2010,12,26,07,21,7.50
2010,12,26,07,22,3.20
2010,12,26,07,23,5.00
2010,12,26,07,24,4.30
2010,12,26,07,25,3.00
2010,12,26,07,26,6.40
2010,12,26,07,27,3.80
2010,12,26,07,28,4.40
2010,12,26,07,29,5.70
2010,12,26,07,30,3.00
2010,12,26,07,31,1.30
2010,12,26,07,32,4.40
2010,12,26,07,33,3.30
2010,12,26,07,34,3.60
2010,12,26,07,35,4.60
2010,12,26,07,36,2.80
2010,12,26,07,37,5.10
2010,12,26,07,38,6.20
2010,12,26,07,39,2.80
2010,12,26,07,40,6.10
2010,12,26,07,41,6.80
2010,12,26,07,42,6.30
2010,12,26,07,43,6.70
2010,12,26,07,44,4.10
2010,12,26,07,45,1.10
2010,12,26,07,46,5.50
2010,12,26,07,47,4.50
2010,12,26,07,48,2.50
2010,12,26,07,49,5.90
2010,12,26,07,50,5.50
2010,12,26,07,51,5.50
2010,12,26,07,52,7.40
2010,12,26,07,53,6.00
2010,12,26,07,54,5.10
2010,12,26,07,55,3.90
2010,12,26,07,56,4.50
2010,12,26,07,57,6.10
2010,12,26,07,58,5.20
2010,12,26,07,59,7.10
2010,12,26,08,00,4.60
2010,12,26,08,01,2.20
2010,12,26,08,02,3.20
2010,12,26,08,03,2.20
2010,12,26,08,04,2.00
2010,12,26,08,05,3.40
2010,12,26,08,06,1.90
2010,12,26,08,07,0.50
2010,12,26,08,08,0.80
2010,12,26,08,09,5.50
2010,12,26,08,10,2.20
2010,12,26,08,11,1.30
2010,12,26,08,12,0.10
2010,12,26,08,13,3.50
2010,12,26,08,14,1.30
2010,12,26,08,15,5.20
2010,12,26,08,16,2.70
2010,12,26,08,17,5.80
2010,12,26,08,18,7.00
2010,12,26,08,19,5.90
2010,12,26,08,20,4.40
2010,12,26,08,21,4.10
2010,12,26,08,22,5.20
2010,12,26,08,23,5.30
2010,12,26,08,24,6.70
2010,12,26,08,25,4.50
2010,12,26,08,26,5.40
2010,12,26,08,27,3.80
2010,12,26,08,28,5.20
2010,12,26,08,29,1.90
2010,12,26,08,30,2.30
2010,12,26,08,31,1.40
2010,12,26,08,32,1.40
2010,12,26,08,33,1.40
2010,12,26,08,34,0.80
2010,12,26,08,35,0.50
2010,12,26,08,36,0.30
2010,12,26,08,37,5.10
2010,12,26,08,38,6.60
2010,12,26,08,39,6.80
2010,12,26,08,40,4.20
2010,12,26,08,41,7.40
2010,12,26,08,42,5.60
2010,12,26,08,43,2.20
2010,12,26,08,44,7.50
2010,12,26,08,45,7.30
2010,12,26,08,46,4.40
2010,12,26,08,47,2.90
2010,12,26,08,48,5.80
2010,12,26,08,49,6.20
2010,12,26,08,50,3.80
2010,12,26,08,51,2.70
2010,12,26,08,52,4.10
2010,12,26,08,53,4.00
2010,12,26,08,54,1.70
2010,12,26,08,55,7.70
2010,12,26,08,56,3.90
2010,12,26,08,57,6.40
2010,12,26,08,58,7.80
2010,12,26,08,59,5.00
2010,12,26,09,00,5.40
2010,12,26,09,01,7.10
2010,12,26,09,02,6.40
2010,12,26,09,03,2.50
2010,12,26,09,04,2.80
2010,12,26,09,05,3.70
2010,12,26,09,06,6.80
2010,12,26,09,07,5.70
2010,12,26,09,08,5.20
2010,12,26,09,09,5.00
2010,12,26,09,10,3.90
2010,12,26,09,11,5.20
2010,12,26,09,12,4.00
2010,12,26,09,13,2.30
2010,12,26,09,14,2.80
2010,12,26,09,15,4.30
2010,12,26,09,16,3.60
2010,12,26,09,17,3.30
2010,12,26,09,18,4.30
2010,12,26,09,19,1.60
2010,12,26,09,20,2.60
2010,12,26,09,21,8.20
2010,12,26,09,22,3.20
2010,12,26,09,23,3.10
2010,12,26,09,24,1.50
2010,12,26,09,25,2.60
2010,12,26,09,26,0.20
2010,12,26,09,27,0.80
2010,12,26,09,28,0.00
2010,12,26,09,29,0.00
2010,12,26,09,30,2.80
2010,12,26,09,31,0.70
2010,12,26,09,32,2.80
2010,12,26,09,33,2.30
2010,12,26,09,34,1.00
2010,12,26,09,35,1.10
2010,12,26,09,36,2.20
2010,12,26,09,37,2.80
2010,12,26,09,38,3.80
2010,12,26,09,39,3.70
2010,12,26,09,40,5.10
2010,12,26,09,41,3.50
2010,12,26,09,42,3.60
2010,12,26,09,43,7.60
2010,12,26,09,44,8.10
2010,12,26,09,45,3.90
2010,12,26,09,46,1.70
2010,12,26,09,47,6.50
2010,12,26,09,48,4.40
2010,12,26,09,49,5.00
2010,12,26,09,50,2.60
2010,12,26,09,51,6.70
2010,12,26,09,52,6.90
2010,12,26,09,53,3.50
2010,12,26,09,54,8.10
2010,12,26,09,55,4.60
2010,12,26,09,56,5.20
2010,12,26,09,57,3.70
2010,12,26,09,58,7.90
2010,12,26,09,59,9.00
2010,12,26,10,00,5.70
2010,12,26,10,01,1.50
2010,12,26,10,02,8.00
2010,12,26,10,03,8.50
2010,12,26,10,04,5.60
2010,12,26,10,05,6.00
2010,12,26,10,06,6.00
2010,12,26,10,07,5.60
2010,12,26,10,08,4.70
2010,12,26,10,09,1.90
2010,12,26,10,10,5.60
2010,12,26,10,11,6.00
2010,12,26,10,12,4.70
2010,12,26,10,13,5.10
2010,12,26,10,14,3.10
2010,12,26,10,15,5.20
2010,12,26,10,16,2.80
2010,12,26,10,17,2.20
2010,12,26,10,18,8.90
2010,12,26,10,19,9.50
2010,12,26,10,20,3.70
2010,12,26,10,21,2.00
2010,12,26,10,22,0.90
2010,12,26,10,23,4.70
2010,12,26,10,24,9.30
2010,12,26,10,25,6.80
2010,12,26,10,26,9.00
2010,12,26,10,27,3.90
2010,12,26,10,28,3.90
2010,12,26,10,29,6.90
2010,12,26,10,30,6.80
2010,12,26,10,31,5.70
2010,12,26,10,32,13.20
2010,12,26,10,33,9.90
2010,12,26,10,34,6.80
2010,12,26,10,35,4.30
2010,12,26,10,36,5.50
2010,12,26,10,37,6.10
2010,12,26,10,38,4.60
2010,12,26,10,39,5.80
2010,12,26,10,40,2.80
2010,12,26,10,41,9.30
2010,12,26,10,42,4.60
2010,12,26,10,43,3.60
2010,12,26,10,44,5.60
2010,12,26,10,45,3.90
2010,12,26,10,46,6.10
2010,12,26,10,47,1.30
2010,12,26,10,48,6.00
2010,12,26,10,49,6.00
2010,12,26,10,50,11.10
2010,12,26,10,51,10.10
2010,12,26,10,52,4.80
2010,12,26,10,53,2.90
2010,12,26,10,54,4.00
2010,12,26,10,55,2.80
2010,12,26,10,56,1.70
2010,12,26,10,57,8.60
2010,12,26,10,58,5.50
2010,12,26,10,59,3.20
2010,12,26,11,00,5.70
2010,12,26,11,01,6.00
2010,12,26,11,02,8.40
2010,12,26,11,03,6.30
2010,12,26,11,04,10.70
2010,12,26,11,05,7.20
2010,12,26,11,06,9.00
2010,12,26,11,07,8.50
2010,12,26,11,08,7.80
2010,12,26,11,09,10.90
2010,12,26,11,10,11.00
2010,12,26,11,11,8.80
2010,12,26,11,12,6.30
2010,12,26,11,13,6.40
2010,12,26,11,14,5.40
2010,12,26,11,15,8.10
2010,12,26,11,16,5.70
2010,12,26,11,17,2.70
2010,12,26,11,18,4.70
2010,12,26,11,19,5.40
2010,12,26,11,20,9.30
2010,12,26,11,21,7.00
2010,12,26,11,22,6.80
2010,12,26,11,23,10.70
2010,12,26,11,24,9.00
2010,12,26,11,25,3.40
2010,12,26,11,26,6.30
2010,12,26,11,27,7.90
2010,12,26,11,28,5.20
2010,12,26,11,29,8.00
2010,12,26,11,30,5.50
2010,12,26,11,31,9.40
2010,12,26,11,32,6.10
2010,12,26,11,33,9.10
2010,12,26,11,34,9.80
2010,12,26,11,35,4.30
2010,12,26,11,36,7.90
2010,12,26,11,37,10.70
2010,12,26,11,38,11.20
2010,12,26,11,39,9.90
2010,12,26,11,40,7.60
2010,12,26,11,41,10.10
2010,12,26,11,42,9.60
2010,12,26,11,43,6.70
2010,12,26,11,44,11.80
2010,12,26,11,45,9.00
2010,12,26,11,46,8.20
2010,12,26,11,47,10.70
2010,12,26,11,48,8.00
2010,12,26,11,49,8.90
2010,12,26,11,50,10.90
2010,12,26,11,51,8.90
2010,12,26,11,52,6.80
2010,12,26,11,53,11.90
2010,12,26,11,54,9.90
2010,12,26,11,55,10.50
2010,12,26,11,56,6.00
2010,12,26,11,57,8.30
2010,12,26,11,58,6.50
2010,12,26,11,59,4.90
2010,12,26,12,00,9.20
2010,12,26,12,01,7.70
2010,12,26,12,02,5.90
2010,12,26,12,03,4.70
2010,12,26,12,04,9.10
2010,12,26,12,05,6.40
2010,12,26,12,06,5.70
2010,12,26,12,07,5.60
2010,12,26,12,08,12.30
2010,12,26,12,09,8.50
2010,12,26,12,10,4.40
2010,12,26,12,11,5.30
2010,12,26,12,12,5.80
2010,12,26,12,13,6.80
2010,12,26,12,14,7.70
2010,12,26,12,15,4.60
2010,12,26,12,16,2.90
2010,12,26,12,17,5.10
2010,12,26,12,18,3.00
2010,12,26,12,19,4.90
2010,12,26,12,20,2.60
2010,12,26,12,21,1.30
2010,12,26,12,22,1.30
2010,12,26,12,23,4.00
2010,12,26,12,24,5.40
2010,12,26,12,25,3.00
2010,12,26,12,26,6.40
2010,12,26,12,27,1.90
2010,12,26,12,28,1.70
2010,12,26,12,29,7.50
2010,12,26,12,30,10.30
2010,12,26,12,31,9.90
2010,12,26,12,32,11.80
2010,12,26,12,33,6.00
2010,12,26,12,34,3.10
2010,12,26,12,35,4.70
2010,12,26,12,36,7.20
2010,12,26,12,37,5.60
2010,12,26,12,38,9.90
2010,12,26,12,39,6.50
2010,12,26,12,40,6.40
2010,12,26,12,41,6.70
2010,12,26,12,42,8.10
2010,12,26,12,43,6.70
2010,12,26,12,44,5.60
2010,12,26,12,45,7.90
2010,12,26,12,46,12.00
2010,12,26,12,47,8.70
2010,12,26,12,48,9.30
2010,12,26,12,49,9.70
2010,12,26,12,50,12.10
2010,12,26,12,51,7.10
2010,12,26,12,52,6.70
2010,12,26,12,53,6.10
2010,12,26,12,54,8.10
2010,12,26,12,55,4.20
2010,12,26,12,56,6.40
2010,12,26,12,57,6.00
2010,12,26,12,58,5.10
2010,12,26,12,59,6.80
2010,12,26,13,00,8.00
2010,12,26,13,01,7.00
2010,12,26,13,02,9.10
2010,12,26,13,03,8.00
2010,12,26,13,04,7.70
2010,12,26,13,05,9.40
2010,12,26,13,06,8.30
2010,12,26,13,07,7.60
2010,12,26,13,08,8.00
2010,12,26,13,09,3.30
2010,12,26,13,10,2.50
2010,12,26,13,11,6.30
2010,12,26,13,12,2.40
2010,12,26,13,13,3.90
2010,12,26,13,14,2.70
2010,12,26,13,15,4.00
2010,12,26,13,16,7.60
2010,12,26,13,17,3.70
2010,12,26,13,18,7.80
2010,12,26,13,19,8.90
2010,12,26,13,20,6.30
2010,12,26,13,21,6.20
2010,12,26,13,22,6.20
2010,12,26,13,23,8.00
2010,12,26,13,24,8.60
2010,12,26,13,25,5.60
2010,12,26,13,26,7.50
2010,12,26,13,27,2.80
2010,12,26,13,28,5.50
2010,12,26,13,29,4.30
2010,12,26,13,30,8.60
2010,12,26,13,31,8.40
2010,12,26,13,32,9.40
2010,12,26,13,33,13.00
2010,12,26,13,34,10.70
2010,12,26,13,35,10.00
2010,12,26,13,36,9.00
2010,12,26,13,37,8.90
2010,12,26,13,38,6.10
2010,12,26,13,39,5.80
2010,12,26,13,40,8.50
2010,12,26,13,41,6.80
2010,12,26,13,42,9.10
2010,12,26,13,43,12.50
2010,12,26,13,44,12.00
2010,12,26,13,45,10.10
2010,12,26,13,46,9.00
2010,12,26,13,47,11.50
2010,12,26,13,48,6.70
2010,12,26,13,49,3.90
2010,12,26,13,50,6.60
2010,12,26,13,51,11.80
2010,12,26,13,52,6.80
2010,12,26,13,53,5.20
2010,12,26,13,54,6.40
2010,12,26,13,55,9.40
2010,12,26,13,56,9.90
2010,12,26,13,57,12.40
2010,12,26,13,58,12.30
2010,12,26,13,59,4.90
2010,12,26,14,00,6.40
2010,12,26,14,01,9.20
2010,12,26,14,02,10.10
2010,12,26,14,03,12.30
2010,12,26,14,04,11.40
2010,12,26,14,05,11.00
2010,12,26,14,06,8.00
2010,12,26,14,07,6.90
2010,12,26,14,08,6.10
2010,12,26,14,09,5.30
2010,12,26,14,10,3.10
2010,12,26,14,11,4.70
2010,12,26,14,12,6.10
2010,12,26,14,13,5.90
2010,12,26,14,14,3.50
2010,12,26,14,15,7.70
2010,12,26,14,16,3.80
2010,12,26,14,17,7.60
2010,12,26,14,18,5.10
2010,12,26,14,19,3.80
2010,12,26,14,20,5.50
2010,12,26,14,21,3.60
2010,12,26,14,22,6.30
2010,12,26,14,23,7.40
2010,12,26,14,24,1.90
2010,12,26,14,25,0.30
2010,12,26,14,26,8.00
2010,12,26,14,27,4.40
2010,12,26,14,28,7.20
2010,12,26,14,29,7.50
2010,12,26,14,30,8.20
2010,12,26,14,31,8.10
2010,12,26,14,32,5.10
2010,12,26,14,33,7.30
2010,12,26,14,34,8.40
2010,12,26,14,35,8.40
2010,12,26,14,36,8.10
2010,12,26,14,37,15.10
2010,12,26,14,38,7.00
2010,12,26,14,39,8.20
2010,12,26,14,40,4.20
2010,12,26,14,41,3.90
2010,12,26,14,42,11.40
2010,12,26,14,43,8.80
2010,12,26,14,44,9.70
2010,12,26,14,45,10.20
2010,12,26,14,46,8.90
2010,12,26,14,47,1.80
2010,12,26,14,48,5.60
2010,12,26,14,49,2.50
2010,12,26,14,50,5.00
2010,12,26,14,51,2.00
2010,12,26,14,52,5.10
2010,12,26,14,53,2.10
2010,12,26,14,54,2.20
2010,12,26,14,55,1.70
2010,12,26,14,56,6.40
2010,12,26,14,57,8.00
2010,12,26,14,58,4.00
2010,12,26,14,59,6.00
2010,12,26,15,00,1.50
2010,12,26,15,01,1.50
2010,12,26,15,02,0.30
2010,12,26,15,03,1.90
2010,12,26,15,04,3.30
2010,12,26,15,05,2.80
2010,12,26,15,06,1.30
2010,12,26,15,07,3.90
2010,12,26,15,08,4.30
2010,12,26,15,09,1.60
2010,12,26,15,10,0.30
2010,12,26,15,11,1.30
2010,12,26,15,12,5.00
2010,12,26,15,13,6.80
2010,12,26,15,14,3.20
2010,12,26,15,15,9.70
2010,12,26,15,16,7.60
2010,12,26,15,17,8.80
2010,12,26,15,18,8.60
2010,12,26,15,19,8.80
2010,12,26,15,20,9.90
2010,12,26,15,21,2.80
2010,12,26,15,22,1.40
2010,12,26,15,23,2.00
2010,12,26,15,24,6.40
2010,12,26,15,25,1.50
2010,12,26,15,26,8.10
2010,12,26,15,27,10.80
2010,12,26,15,28,7.60
2010,12,26,15,29,11.70
2010,12,26,15,30,5.40
2010,12,26,15,31,2.00
2010,12,26,15,32,7.20
2010,12,26,15,33,8.50
2010,12,26,15,34,10.80
2010,12,26,15,35,4.90
2010,12,26,15,36,2.50
2010,12,26,15,37,3.90
2010,12,26,15,38,9.50
2010,12,26,15,39,11.20
2010,12,26,15,40,8.40
2010,12,26,15,41,6.10
2010,12,26,15,42,8.60
2010,12,26,15,43,8.90
2010,12,26,15,44,0.90
2010,12,26,15,45,4.40
2010,12,26,15,46,2.50
2010,12,26,15,47,4.90
2010,12,26,15,48,4.00
2010,12,26,15,49,6.10
2010,12,26,15,50,9.50
2010,12,26,15,51,6.50
2010,12,26,15,52,7.60
2010,12,26,15,53,8.10
2010,12,26,15,54,4.20
2010,12,26,15,55,6.90
2010,12,26,15,56,9.60
2010,12,26,15,57,7.20
2010,12,26,15,58,10.00
2010,12,26,15,59,7.10
2010,12,26,16,00,7.30
2010,12,26,16,01,7.10
2010,12,26,16,02,8.10
2010,12,26,16,03,6.20
2010,12,26,16,04,3.80
2010,12,26,16,05,3.90
2010,12,26,16,06,6.30
2010,12,26,16,07,5.70
2010,12,26,16,08,5.60
2010,12,26,16,09,9.20
2010,12,26,16,10,4.80
2010,12,26,16,11,8.50
2010,12,26,16,12,8.30
2010,12,26,16,13,8.80
2010,12,26,16,14,2.70
2010,12,26,16,15,2.70
2010,12,26,16,16,3.30
2010,12,26,16,17,4.10
2010,12,26,16,18,3.30
2010,12,26,16,19,2.80
2010,12,26,16,20,2.50
2010,12,26,16,21,5.00
2010,12,26,16,22,1.00
2010,12,26,16,23,1.40
2010,12,26,16,24,7.70
2010,12,26,16,25,6.40
2010,12,26,16,26,3.40
2010,12,26,16,27,4.70
2010,12,26,16,28,3.10
2010,12,26,16,29,0.80
2010,12,26,16,30,0.90
2010,12,26,16,31,0.00
2010,12,26,16,32,0.10
2010,12,26,16,33,1.00
2010,12,26,16,34,0.20
2010,12,26,16,35,0.70
2010,12,26,16,36,0.50
2010,12,26,16,37,1.00
2010,12,26,16,38,0.00
2010,12,26,16,39,0.10
2010,12,26,16,40,0.50
2010,12,26,16,41,0.00
2010,12,26,16,42,0.90
2010,12,26,16,43,0.10
2010,12,26,16,44,0.00
2010,12,26,16,45,0.10
2010,12,26,16,46,0.10
2010,12,26,16,47,0.00
2010,12,26,16,48,0.00
2010,12,26,16,49,0.00
2010,12,26,16,50,0.00
2010,12,26,16,51,0.00
2010,12,26,16,52,0.00
2010,12,26,16,53,1.20
2010,12,26,16,54,0.90
2010,12,26,16,55,2.40
2010,12,26,16,56,3.20
2010,12,26,16,57,3.50
2010,12,26,16,58,3.00
2010,12,26,16,59,1.60
2010,12,26,17,00,4.10
2010,12,26,17,01,2.30
2010,12,26,17,02,2.30
2010,12,26,17,03,1.40
2010,12,26,17,04,3.10
2010,12,26,17,05,3.60
2010,12,26,17,06,3.00
2010,12,26,17,07,0.60
2010,12,26,17,08,2.50
2010,12,26,17,09,2.60
2010,12,26,17,10,3.40
2010,12,26,17,11,0.50
2010,12,26,17,12,3.70
2010,12,26,17,13,3.70
2010,12,26,17,14,0.90
2010,12,26,17,15,1.60
2010,12,26,17,16,1.90
2010,12,26,17,17,8.20
2010,12,26,17,18,4.70
2010,12,26,17,19,0.30
2010,12,26,17,20,4.00
2010,12,26,17,21,7.60
2010,12,26,17,22,10.80
2010,12,26,17,23,10.10
2010,12,26,17,24,8.90
2010,12,26,17,25,8.60
2010,12,26,17,26,7.80
2010,12,26,17,27,6.20
2010,12,26,17,28,8.40
2010,12,26,17,29,8.70
2010,12,26,17,30,4.70
2010,12,26,17,31,3.70
2010,12,26,17,32,6.30
2010,12,26,17,33,6.60
2010,12,26,17,34,9.20
2010,12,26,17,35,8.50
2010,12,26,17,36,8.80
2010,12,26,17,37,11.10
2010,12,26,17,38,12.20
2010,12,26,17,39,10.10
2010,12,26,17,40,7.00
2010,12,26,17,41,6.40
2010,12,26,17,42,6.90
2010,12,26,17,43,8.40
2010,12,26,17,44,11.00
2010,12,26,17,45,12.90
2010,12,26,17,46,9.90
2010,12,26,17,47,5.00
2010,12,26,17,48,7.20
2010,12,26,17,49,5.30
2010,12,26,17,50,5.30
2010,12,26,17,51,6.40
2010,12,26,17,52,6.00
2010,12,26,17,53,7.20
2010,12,26,17,54,4.60
2010,12,26,17,55,2.70
2010,12,26,17,56,3.70
2010,12,26,17,57,1.70
2010,12,26,17,58,3.20
2010,12,26,17,59,2.50
2010,12,26,18,00,3.50
2010,12,26,18,01,2.60
2010,12,26,18,02,6.60